Location: ?astrovice
(49.6513°N, 14.9287°E)
Time: 07:24:19
(UTC+00:00)

BEESAT - Pass Details

Date: 31 October 2021
Orbit: 700 x 707 km, 98.6° (Epoch: 01 December)

Event Time Altitude Azimuth Distance (km) Brightness Sun altitude
Rises 04:46:49 0° 138° (SE) 3,078 ? -10.3°
Reaches altitude 10° 04:49:12 10° 130° (SE) 2,164 ? -9.9°
Maximum altitude 04:53:29 35° 65° (ENE) 1,122 ? -9.2°
Drops below altitude 10° 04:57:49 10° 0° (N) 2,178 ? -8.5°
Sets 05:00:13 0° 352° (N) 3,101 ? -8.2°
